Weather in Ko Chang

Thailand     12°02′44″N   102°20′20″E
temp.,
°C
wind,
m/s
gust,
m/s
humid.,
%
clouds,
%
prec.,
mm/h
press.,
hPa
HPBL,
m
12 april, mon
mon1201:00+27ne2278100 4.9 1012252
04:00+28se117130 3.6 101197
07:00+28ese437168 6.4 1013550
10:00+28sse3473100 0.6 1014471
13:00+29sse4471100 3.6 1012578
16:00+29ssw226660 0.0 1010593
19:00+29s447032 0.0 1011681
22:00+29s337091 0.0 1013554
13 april, tue
tue1301:00+29s33695 1.4 1012538
04:00+28ssw447398 0.8 1010257
07:00+29se3471100 2.4 1012769
10:00+29se447347 0.0 1013819
13:00+29s337350 0.1 1011676
16:00+29ssw337223 0.0 1009849
19:00+29ssw337499 0.0 1010690
22:00+29sw4475100 1.4 1011515
14 april, wed
wed1401:00+29ssw2272100 5.9 1010323
04:00+29ssw4472100 3.1 1009506
07:00+28wsw2372100 12.7 1012141
10:00+27nw6584100 1.7 1013449
13:00+27nnw1175100 1.8 1011329
16:00+28se1173100 0.0 1008285
19:00+28s337456 0.0 1008498
22:00+29sse227251 0.0 1011621
15 april, thu
thu1501:00+29ssw236929 0.0 1010783
04:00+29sw336931 0.0 1009938
07:00+29ssw4469100 0.0 1010874
10:00+29ssw3369100 0.0 1012940
13:00+29sw2369100 0.0 1010891
16:00+29sw2368100 0.0 1008759
19:00+29s2372100 0.0 1009674
22:00+29sse3373100 0.0 1010513
16 april, fri
fri1601:00+29s3373100 0.0 1009601
04:00+29ssw23726 0.0 1009657
07:00+29s337295 0.0 1010732
10:00+29s236960 0.0 1012798
13:00+29s236814 0.0 1010776
16:00+29s347049 0.0 1008751
19:00+29s447368 0.0 1009862
22:00+29s457596 0.0 1011809